Total_Precipitation_Accumulation
0.45 0.44 0.41 0.36 0.33 0.33 0.34 0.36 0.39 0.39 0.41 0.44 0.48 0.50 0.51 0.52 0.51 0.53 0.54 0.60 0.67 0.72 0.76 0.87 0.94 0.95 0.95 0.95 1.00 1.03 1.09 1.16 1.02 0.82 0.75 0.74 0.70 0.61 0.49 0.37 0.27 0.23 0.18
0.60 0.65 0.71 0.69 0.62 0.53 0.41 0.38 0.41 0.47 0.48 0.48 0.51 0.52 0.51 0.53 0.60 0.66 0.65 0.70 0.74 0.76 0.78 0.80 0.79 0.84 0.92 0.91 0.92 0.92 0.96 1.07 0.97 0.84 0.84 0.82 0.79 0.72 0.62 0.49 0.36 0.28 0.25
0.85 1.00 1.11 1.09 0.91 0.68 0.50 0.42 0.44 0.49 0.53 0.54 0.59 0.66 0.68 0.68 0.68 0.73 0.78 0.78 0.72 0.68 0.68 0.68 0.66 0.67 0.72 0.79 0.85 0.81 0.78 0.85 0.90 0.90 0.91 0.92 0.86 0.72 0.63 0.56 0.47 0.43 0.32
0.70 0.89 1.03 1.09 0.91 0.68 0.54 0.47 0.41 0.40 0.43 0.49 0.57 0.67 0.76 0.81 0.83 0.79 0.73 0.70 0.65 0.60 0.56 0.53 0.55 0.58 0.59 0.62 0.70 0.72 0.72 0.76 0.82 0.84 0.89 0.94 0.86 0.75 0.67 0.61 0.57 0.58 0.46
0.39 0.56 0.72 0.82 0.68 0.47 0.36 0.31 0.28 0.33 0.40 0.51 0.62 0.70 0.81 0.88 0.83 0.79 0.70 0.65 0.63 0.56 0.50 0.45 0.44 0.44 0.46 0.51 0.55 0.57 0.60 0.65 0.68 0.71 0.75 0.80 0.76 0.70 0.62 0.55 0.56 0.65 0.61
0.32 0.38 0.48 0.54 0.45 0.32 0.20 0.15 0.20 0.28 0.35 0.43 0.50 0.56 0.59 0.56 0.57 0.54 0.49 0.47 0.48 0.45 0.42 0.41 0.37 0.33 0.36 0.38 0.37 0.42 0.47 0.47 0.53 0.64 0.66 0.70 0.68 0.60 0.55 0.56 0.58 0.59 0.67
0.35 0.35 0.40 0.45 0.40 0.28 0.16 0.14 0.18 0.25 0.31 0.35 0.38 0.41 0.42 0.42 0.35 0.30 0.28 0.28 0.32 0.34 0.35 0.36 0.28 0.25 0.30 0.31 0.28 0.26 0.29 0.32 0.36 0.49 0.59 0.60 0.61 0.58 0.54 0.56 0.62 0.74 0.82
0.31 0.31 0.41 0.49 0.45 0.36 0.29 0.27 0.28 0.32 0.35 0.36 0.35 0.36 0.40 0.38 0.29 0.22 0.19 0.18 0.22 0.25 0.28 0.32 0.30 0.27 0.27 0.27 0.25 0.20 0.18 0.21 0.24 0.29 0.37 0.48 0.61 0.67 0.60 0.53 0.53 0.59 0.74
0.29 0.35 0.41 0.49 0.51 0.45 0.42 0.42 0.44 0.44 0.42 0.41 0.38 0.37 0.39 0.40 0.30 0.20 0.17 0.19 0.25 0.24 0.25 0.27 0.28 0.27 0.28 0.22 0.21 0.22 0.21 0.20 0.20 0.24 0.28 0.37 0.48 0.59 0.66 0.50 0.36 0.30 0.33
0.32 0.38 0.44 0.54 0.61 0.56 0.54 0.55 0.55 0.56 0.51 0.47 0.43 0.44 0.47 0.51 0.43 0.25 0.20 0.23 0.29 0.32 0.35 0.32 0.29 0.28 0.26 0.20 0.20 0.23 0.22 0.20 0.19 0.20 0.21 0.26 0.30 0.37 0.46 0.44 0.32 0.23 0.18
0.31 0.36 0.46 0.61 0.67 0.67 0.71 0.73 0.69 0.64 0.63 0.62 0.56 0.55 0.57 0.60 0.53 0.30 0.22 0.28 0.34 0.41 0.42 0.40 0.33 0.27 0.21 0.19 0.20 0.23 0.24 0.22 0.24 0.25 0.24 0.23 0.27 0.30 0.30 0.31 0.29 0.23 0.20
0.34 0.41 0.53 0.61 0.56 0.56 0.73 0.80 0.80 0.78 0.74 0.73 0.70 0.65 0.64 0.64 0.53 0.36 0.25 0.30 0.40 0.50 0.51 0.48 0.43 0.33 0.25 0.23 0.22 0.23 0.24 0.24 0.26 0.29 0.28 0.27 0.26 0.25 0.25 0.25 0.25 0.23 0.21
0.41 0.47 0.54 0.58 0.64 0.73 0.79 0.81 0.83 0.85 0.81 0.76 0.75 0.75 0.75 0.79 0.69 0.40 0.32 0.38 0.46 0.54 0.58 0.56 0.51 0.41 0.31 0.27 0.29 0.28 0.25 0.24 0.27 0.29 0.28 0.26 0.23 0.21 0.22 0.24 0.24 0.22 0.21
0.49 0.48 0.51 0.58 0.64 0.77 0.91 0.91 0.87 0.86 0.87 0.85 0.81 0.78 0.79 0.85 0.83 0.61 0.46 0.52 0.58 0.61 0.59 0.57 0.51 0.48 0.41 0.35 0.35 0.32 0.27 0.30 0.33 0.31 0.30 0.30 0.29 0.27 0.25 0.22 0.20 0.18 0.17
0.59 0.54 0.53 0.58 0.67 0.79 0.88 0.94 0.88 0.86 0.73 0.73 0.76 0.76 0.74 0.79 0.80 0.69 0.64 0.74 0.81 0.78 0.75 0.76 0.68 0.58 0.49 0.44 0.41 0.38 0.37 0.41 0.40 0.39 0.38 0.38 0.35 0.29 0.26 0.23 0.20 0.16 0.12
0.75 0.70 0.67 0.69 0.74 0.77 0.85 0.84 0.71 0.62 0.51 0.47 0.47 0.49 0.50 0.53 0.62 0.58 0.56 0.69 0.79 0.83 0.83 0.83 0.77 0.66 0.55 0.51 0.49 0.47 0.44 0.43 0.40 0.41 0.41 0.41 0.39 0.32 0.27 0.23 0.21 0.17 0.13
0.87 0.85 0.83 0.77 0.78 0.83 0.88 0.93 0.90 0.74 0.58 0.47 0.38 0.33 0.34 0.38 0.48 0.52 0.56 0.66 0.75 0.80 0.80 0.79 0.72 0.66 0.58 0.55 0.54 0.51 0.46 0.44 0.43 0.43 0.43 0.43 0.42 0.34 0.28 0.24 0.19 0.18 0.16
0.89 0.87 0.85 0.84 0.81 0.84 0.87 0.89 0.93 0.95 0.86 0.70 0.48 0.35 0.30 0.31 0.37 0.46 0.53 0.65 0.77 0.78 0.75 0.74 0.69 0.63 0.58 0.56 0.54 0.52 0.49 0.47 0.44 0.43 0.44 0.44 0.43 0.34 0.28 0.24 0.17 0.14 0.14
0.87 0.84 0.81 0.82 0.83 0.81 0.83 0.84 0.83 0.88 0.88 0.82 0.66 0.47 0.37 0.33 0.34 0.43 0.48 0.58 0.74 0.76 0.75 0.72 0.65 0.58 0.54 0.55 0.53 0.50 0.47 0.44 0.43 0.44 0.45 0.43 0.42 0.34 0.26 0.22 0.18 0.15 0.12
0.88 0.79 0.73 0.74 0.78 0.79 0.80 0.82 0.79 0.82 0.82 0.80 0.68 0.53 0.43 0.38 0.38 0.41 0.44 0.55 0.71 0.76 0.71 0.66 0.63 0.55 0.51 0.51 0.49 0.46 0.44 0.41 0.40 0.42 0.43 0.43 0.41 0.33 0.24 0.20 0.18 0.15 0.11
0.91 0.80 0.67 0.65 0.68 0.73 0.78 0.79 0.76 0.74 0.73 0.73 0.61 0.44 0.35 0.35 0.39 0.43 0.47 0.57 0.67 0.66 0.61 0.57 0.56 0.50 0.46 0.42 0.40 0.37 0.37 0.36 0.36 0.37 0.38 0.40 0.40 0.33 0.25 0.20 0.18 0.14 0.11
0.96 0.88 0.75 0.63 0.60 0.66 0.72 0.75 0.73 0.68 0.65 0.64 0.54 0.37 0.30 0.30 0.33 0.37 0.41 0.48 0.54 0.53 0.50 0.47 0.44 0.39 0.36 0.34 0.31 0.30 0.31 0.32 0.32 0.33 0.31 0.33 0.35 0.31 0.26 0.20 0.17 0.15 0.12
0.88 0.82 0.72 0.56 0.53 0.58 0.65 0.70 0.67 0.59 0.58 0.57 0.48 0.37 0.30 0.31 0.31 0.34 0.38 0.42 0.44 0.45 0.42 0.38 0.33 0.31 0.30 0.29 0.27 0.25 0.23 0.25 0.25 0.25 0.23 0.25 0.29 0.28 0.24 0.19 0.16 0.14 0.11
0.75 0.75 0.70 0.52 0.47 0.57 0.63 0.66 0.62 0.52 0.51 0.47 0.38 0.32 0.30 0.31 0.30 0.31 0.33 0.34 0.36 0.37 0.34 0.30 0.26 0.25 0.23 0.23 0.24 0.22 0.20 0.21 0.22 0.21 0.17 0.17 0.21 0.21 0.20 0.16 0.14 0.12 0.09
0.69 0.67 0.68 0.56 0.46 0.52 0.59 0.61 0.55 0.46 0.40 0.33 0.28 0.25 0.24 0.24 0.25 0.28 0.29 0.30 0.30 0.29 0.25 0.23 0.24 0.23 0.18 0.16 0.16 0.16 0.18 0.19 0.19 0.17 0.15 0.14 0.14 0.14 0.14 0.12 0.10 0.09 0.08
0.67 0.64 0.66 0.62 0.52 0.50 0.54 0.53 0.47 0.38 0.29 0.22 0.18 0.16 0.18 0.19 0.21 0.22 0.22 0.21 0.21 0.20 0.18 0.18 0.17 0.14 0.12 0.10 0.10 0.11 0.13 0.14 0.14 0.14 0.13 0.11 0.10 0.10 0.10 0.09 0.07 0.06 0.05